Location: Sternwarte Stuttgart
(48.7824°N, 9.1965°E)
Time: 12:15:28
(UTC+00:00)

ISS - Pass Details

Date: 28 April 2025
Orbit: 416 x 420 km, 51.6° (Epoch: 15 May)

Event Time Altitude Azimuth Distance (km) Brightness Sun altitude
Exits shadow 02:32:45 24° 261° (W) 909 -2.5 -14.1°
Maximum altitude 02:34:37 74° 342° (NNW) 439 -3.7 -13.8°
Drops below altitude 10° 02:37:58 10° 69° (ENE) 1,498 0.2 -13.4°
Sets 02:40:05 0° 71° (ENE) 2,364 1.4 -13.1°
